sat.trackr.live / text

‹ back to catalog

STARLINK-35136

NORAD 65537 · 2025-200T

PAYLOAD ACTIVE UNKNOWN

§ Identity

Operator
Country
US
Launch date
2025-09-06
Launch site
AFWTR
Launch vehicle
Mass (kg)
RCS (m²)

Purposes: comms

External: N2YO · Heavens-Above · Gunter

§ Orbital elements

Epoch: 2026-09-20T22:30:10.358496Z

Period
93.91 min
Inclination
97.2860°
Eccentricity
0.0000908
Mean motion
15.33449556 rev/d
Perigee alt
464.9 km
Apogee alt
466.2 km
Semi-major
6,843.7 km
B*
3.4896e-4
RAAN
330.3946°
Arg perigee
97.8061°
Mean anomaly
262.3285°
Rev number
5,862

§ Raw data

STARLINK-351361 65537U 25200T   26263.93761989  .00011209  00000+0  34896-3 0  99912 65537  97.2860 330.3946 0000908  97.8061 262.3285 15.33449556 58620

JSON: /api/v1/satellites/65537 · /tle

For live sub-satellite position, see the globe view (requires WebGL).

§ Visibility from observer

Set your observer location to see the next 7 days of passes ≥ 10°. The values pass through the URL so the page stays shareable.

No JS? Fill the form by hand. The geolocation button needs JavaScript.